ORBCOMM FM27

Last updated on Sat Aug 15 2026 00:03:10 GMT+0000 (Coordinated Universal Time)

1 25481U 98053G 26226.56654784 .00000348 00000+0 15692-3 0 9998 2 25481 45.0056 58.0477 0000985 143.2793 216.8123 14.39230818458643
UTC large
Height (km)
Speed (km/s)
/
Latitude / Longitude
Inclination (degrees)
Orbital Period (minutes)
Azimuth
Elevation
Range (km)
Doppler Factor

Next 0 passes for location: London (51.5072 / 0.1276)

No passes found over London.
ORBCOMM FM27